World > North America > United States > Mississippi

Lamar, Mississippi Regional Weather

Lat: 34.92N, Lon: 89.32W
Wx Zone: MSZ003Web Search

Helpful Tip: Abbreviated, 7 Day, 14 Day Forecasts. There is a weather forecast for every taste.

Feedback


°F Click to change Lamar hourly weather to Imperial units.Click to change Lamar hourly weather to Metric units. °C
Lamar Weather Map
UTC Time: 5/11/2021, 07:15
Your Time:

Lamar, MS Regional Weather

Expires:202105110800;;933092
ASUS44 KJAN 110710
RWRMS 

MISSISSIPPI HOURLY WEATHER ROUNDUP
NATIONAL WEATHER SERVICE JACKSON MS
200 AM CDT TUE MAY 11 2021

NOTE: "FAIR: INDICATES FEW OR NO CLOUDS BELOW 12,000 FEET WITH NO
SIGNIFICANT WEATHER AND/OR OBSTRUCTIONS TO VISIBILITY.


MSZ003>006-009-014>017-022>024-029>033-037>039-110800-
NORTHEAST MISSISSIPPI
  
CITY           SKY/WX    TMP DP  RH WIND       PRES   REMARKS
ABERDEEN       CLOUDY    59  57  94 N6        30.10F                  
COLUMBUS AFB   CLOUDY    60  56  88 CALM      30.08S                  
CORINTH        CLOUDY    52  50  93 CALM      30.12R                  
GOLDN TRIANGLE CLOUDY    60  60 100 N3        30.09F                  
STARKVILLE     CLOUDY    57  54  88 NE3       30.10S                  
TUPELO         CLOUDY    58  51  78 N7        30.10S                  
$$


SKY/WX - Weather  TMP - Temperature  DP - Dew Point  RH - Relative Humidity
WIND - Wind Direction/Speed PRES - Barometric Pressure VSB - Visibility
WCI - Wind Chill Index E13G22 Wind - East Wind 13 mph/Gusts of 22 mph